• In Hungary
  • List of Countries
  • For 7 days
  • Water Temperature
  • Satellite Maps
  • Weather Map
  • News
  • Weather Widgets
  • user-avatar
    Login

    Hourly Weather Kaparzow

    Today, 18 September, Tuesday

    Time Temperature Precipitation Wind Pressure Humidity
    00:00 +17°C° 0 mm 2 mps 746 mmHg 76%
    01:00 +17°C° 0 mm 2 mps 746 mmHg 77%
    02:00 +16°C° 0 mm 2 mps 746 mmHg 79%
    03:00 +16°C° 0 mm 2 mps 746 mmHg 80%
    04:00 +16°C° 0 mm 2 mps 745 mmHg 81%
    05:00 +17°C° 0 mm 2 mps 746 mmHg 79%
    06:00 +17°C° 0 mm 2 mps 746 mmHg 76%
    07:00 +18°C° 0 mm 2 mps 746 mmHg 69%
    08:00 +20°C° 0 mm 3 mps 746 mmHg 63%
    09:00 +22°C° 0 mm 3 mps 746 mmHg 56%
    10:00 +25°C° 0 mm 3 mps 746 mmHg 49%
    11:00 +26°C° 0 mm 3 mps 746 mmHg 46%
    12:00 +27°C° 0 mm 3 mps 745 mmHg 44%
    13:00 +28°C° 0 mm 3 mps 745 mmHg 41%
    14:00 +28°C° 0 mm 3 mps 745 mmHg 42%
    15:00 +27°C° 0 mm 3 mps 745 mmHg 44%
    16:00 +27°C° 0 mm 2 mps 744 mmHg 45%
    17:00 +25°C° 0 mm 2 mps 744 mmHg 50%
    18:00 +24°C° 0 mm 2 mps 744 mmHg 54%
    19:00 +21°C° 0 mm 2 mps 744 mmHg 59%
    20:00 +20°C° 0 mm 2 mps 745 mmHg 61%
    21:00 +20°C° 0 mm 2 mps 745 mmHg 63%
    22:00 +19°C° 0 mm 2 mps 745 mmHg 65%
    23:00 +19°C° 0 mm 2 mps 745 mmHg 66%

    Tomorrow, 19 September, Wednesday

    Time Temperature Precipitation Wind Pressure Humidity
    00:00 +18°C° 0 mm 2 mps 745 mmHg 66%
    01:00 +18°C° 0 mm 2 mps 745 mmHg 67%
    02:00 +18°C° 0 mm 2 mps 745 mmHg 66%
    03:00 +17°C° 0 mm 3 mps 745 mmHg 66%
    04:00 +17°C° 0 mm 3 mps 745 mmHg 66%
    05:00 +18°C° 0 mm 3 mps 745 mmHg 64%
    06:00 +18°C° 0 mm 3 mps 745 mmHg 62%
    07:00 +19°C° 0 mm 3 mps 745 mmHg 60%
    08:00 +21°C° 0 mm 3 mps 745 mmHg 54%
    09:00 +23°C° 0 mm 4 mps 745 mmHg 48%
    10:00 +26°C° 0 mm 4 mps 745 mmHg 42%
    11:00 +27°C° 0 mm 4 mps 745 mmHg 40%
    12:00 +28°C° 0 mm 4 mps 745 mmHg 38%
    13:00 +29°C° 0 mm 3 mps 745 mmHg 36%
    14:00 +28°C° 0 mm 3 mps 745 mmHg 37%
    15:00 +28°C° 0 mm 2 mps 745 mmHg 39%
    16:00 +28°C° 0 mm 2 mps 745 mmHg 41%
    17:00 +26°C° 0 mm 2 mps 745 mmHg 45%
    18:00 +24°C° 0 mm 1 mps 745 mmHg 50%
    19:00 +22°C° 0 mm 1 mps 745 mmHg 54%
    20:00 +22°C° 0 mm 1 mps 745 mmHg 56%
    21:00 +21°C° 0 mm 1 mps 746 mmHg 57%
    22:00 +20°C° 0 mm 2 mps 746 mmHg 59%
    23:00 +19°C° 0 mm 2 mps 746 mmHg 61%

    Day after tomorrow, 20 September, Thursday

    Time Temperature Precipitation Wind Pressure Humidity
    00:00 +19°C° 0 mm 2 mps 746 mmHg 63%
    01:00 +18°C° 0 mm 2 mps 746 mmHg 64%
    02:00 +18°C° 0 mm 2 mps 746 mmHg 66%
    03:00 +18°C° 0 mm 2 mps 745 mmHg 67%
    04:00 +17°C° 0 mm 2 mps 745 mmHg 68%
    05:00 +18°C° 0 mm 2 mps 745 mmHg 67%
    06:00 +19°C° 0 mm 2 mps 746 mmHg 65%
    07:00 +19°C° 0 mm 2 mps 746 mmHg 64%
    08:00 +21°C° 0 mm 2 mps 746 mmHg 57%
    09:00 +24°C° 0 mm 2 mps 746 mmHg 51%
    10:00 +26°C° 0 mm 3 mps 746 mmHg 44%
    11:00 +27°C° 0 mm 3 mps 745 mmHg 41%
    12:00 +28°C° 0 mm 3 mps 745 mmHg 38%
    13:00 +29°C° 0 mm 3 mps 745 mmHg 35%
    14:00 +28°C° 0 mm 2 mps 745 mmHg 36%
    15:00 +28°C° 0 mm 2 mps 744 mmHg 37%
    16:00 +28°C° 0 mm 2 mps 744 mmHg 38%
    17:00 +26°C° 0 mm 2 mps 744 mmHg 42%
    18:00 +24°C° 0 mm 2 mps 744 mmHg 46%
    19:00 +21°C° 0 mm 2 mps 744 mmHg 50%
    20:00 +21°C° 0 mm 2 mps 744 mmHg 53%
    21:00 +20°C° 0 mm 2 mps 744 mmHg 55%
    22:00 +19°C° 0 mm 2 mps 744 mmHg 57%
    23:00 +19°C° 0 mm 2 mps 744 mmHg 60%

    21 September, Friday

    Time Temperature Precipitation Wind Pressure Humidity
    00:00 +18°C° 0 mm 2 mps 743 mmHg 62%
    01:00 +18°C° 0 mm 2 mps 743 mmHg 64%
    02:00 +18°C° 0 mm 2 mps 743 mmHg 66%
    03:00 +18°C° 0 mm 2 mps 743 mmHg 68%
    04:00 +17°C° 0 mm 2 mps 742 mmHg 69%
    05:00 +18°C° 0 mm 2 mps 742 mmHg 68%
    06:00 +18°C° 0 mm 3 mps 742 mmHg 67%
    07:00 +19°C° 0 mm 3 mps 742 mmHg 65%
    08:00 +21°C° 0 mm 3 mps 742 mmHg 57%
    09:00 +23°C° 0 mm 4 mps 741 mmHg 50%
    10:00 +27°C° 0 mm 4 mps 741 mmHg 42%
    11:00 +28°C° 0 mm 5 mps 741 mmHg 39%
    12:00 +29°C° 0 mm 5 mps 740 mmHg 35%
    13:00 +30°C° 0 mm 6 mps 740 mmHg 32%
    14:00 +29°C° 0 mm 5 mps 739 mmHg 34%
    15:00 +29°C° 0 mm 5 mps 739 mmHg 35%
    16:00 +28°C° 0 mm 4 mps 738 mmHg 37%
    17:00 +27°C° 0 mm 4 mps 738 mmHg 40%
    18:00 +25°C° 0 mm 4 mps 738 mmHg 44%
    19:00 +22°C° 0 mm 4 mps 737 mmHg 47%
    20:00 +22°C° 0 mm 4 mps 737 mmHg 48%
    21:00 +22°C° 0 mm 4 mps 737 mmHg 49%
    22:00 +21°C° 0 mm 4 mps 737 mmHg 50%
    23:00 +21°C° 0 mm 4 mps 737 mmHg 53%

    22 September, Saturday

    Time Temperature Precipitation Wind Pressure Humidity
    00:00 +20°C° 0 mm 4 mps 737 mmHg 55%
    01:00 +19°C° 0 mm 5 mps 737 mmHg 58%
    02:00 +17°C° 0.3 mm 5 mps 738 mmHg 64%
    03:00 +15°C° 0.3 mm 6 mps 739 mmHg 70%
    04:00 +14°C° 0.3 mm 6 mps 740 mmHg 76%
    05:00 +13°C° 0.6 mm 6 mps 741 mmHg 78%
    06:00 +11°C° 0.6 mm 6 mps 742 mmHg 80%
    07:00 +11°C° 0.6 mm 7 mps 743 mmHg 81%
    08:00 +11°C° 0.2 mm 6 mps 743 mmHg 79%
    09:00 +10°C° 0.2 mm 6 mps 744 mmHg 77%
    10:00 +10°C° 0.2 mm 6 mps 744 mmHg 74%
    11:00 +11°C° 0 mm 6 mps 745 mmHg 70%
    12:00 +11°C° 0 mm 6 mps 745 mmHg 66%
    13:00 +13°C° 0 mm 5 mps 745 mmHg 61%
    14:00 +13°C° 0.1 mm 5 mps 745 mmHg 59%
    15:00 +14°C° 0.1 mm 5 mps 745 mmHg 56%
    16:00 +14°C° 0.1 mm 5 mps 744 mmHg 54%
    17:00 +13°C° 0.1 mm 4 mps 745 mmHg 59%
    18:00 +12°C° 0.1 mm 4 mps 745 mmHg 65%
    19:00 +10°C° 0.1 mm 3 mps 745 mmHg 71%
    20:00 +10°C° 0 mm 3 mps 746 mmHg 72%
    21:00 +10°C° 0 mm 3 mps 746 mmHg 73%
    22:00 +10°C° 0 mm 3 mps 746 mmHg 73%
    23:00 +9°C° 0 mm 3 mps 746 mmHg 74%

    23 September, Sunday

    Time Temperature Precipitation Wind Pressure Humidity
    00:00 +9°C° 0 mm 3 mps 746 mmHg 75%
    01:00 +9°C° 0 mm 3 mps 746 mmHg 75%
    02:00 +9°C° 0 mm 3 mps 746 mmHg 77%
    03:00 +8°C° 0 mm 3 mps 746 mmHg 78%
    04:00 +8°C° 0 mm 3 mps 746 mmHg 80%
    05:00 +8°C° 0 mm 3 mps 746 mmHg 77%
    06:00 +9°C° 0 mm 3 mps 746 mmHg 75%
    07:00 +10°C° 0 mm 4 mps 746 mmHg 72%
    08:00 +11°C° 0 mm 4 mps 746 mmHg 65%
    09:00 +13°C° 0 mm 4 mps 746 mmHg 57%
    10:00 +15°C° 0 mm 4 mps 746 mmHg 50%
    11:00 +17°C° 0 mm 4 mps 745 mmHg 46%
    12:00 +17°C° 0 mm 4 mps 745 mmHg 43%
    13:00 +18°C° 0 mm 4 mps 744 mmHg 39%
    14:00 +18°C° 0 mm 4 mps 743 mmHg 40%
    15:00 +18°C° 0 mm 4 mps 743 mmHg 40%
    16:00 +18°C° 0 mm 3 mps 742 mmHg 41%
    17:00 +16°C° 0 mm 3 mps 741 mmHg 45%
    18:00 +14°C° 0 mm 3 mps 741 mmHg 49%
    19:00 +13°C° 0 mm 3 mps 740 mmHg 53%
    20:00 +13°C° 0 mm 4 mps 739 mmHg 52%
    21:00 +13°C° 0 mm 5 mps 738 mmHg 52%
    22:00 +13°C° 0 mm 6 mps 738 mmHg 51%
    23:00 +13°C° 0.5 mm 6 mps 736 mmHg 57%
    Show more